Location: The Saddle
(36.8333°N, 80.3417°W)
Time: 08:24:41
(UTC-05:00)

Vanguard 2 Rocket - Pass Details

Date: 14 December 2023
Orbit: 555 x 3309 km, 32.9° (Epoch: 02 March)

Event Time Altitude Azimuth Distance (km) Brightness Sun altitude
Rises 14:07:34 0° 262° (W) 5,330 11.3 24.4°
Reaches altitude 10° 14:10:31 10° 261° (W) 4,632 11.1 24.2°
Maximum altitude 14:24:53 78° 178° (S) 2,980 10.1 22.7°
Drops below altitude 10° 14:45:15 10° 97° (E) 6,250 10.9 20.4°
Sets 14:50:00 0° 96° (E) 7,193 11.2 19.8°
